Regional Weather Roundup
Issued by NWS

Home | Current Version | Previous Version | Graphics & Text | Print | Product List | Glossary On
Versions: 1 2 3 4 5 6 7 8 9 10 11 12 13 14 15 16 17 18 19 20 21 22 23 24 25 26 27 28 29 30 31 32 33 34 35 36 37 38 39 40 41 42 43 44 45 46 47 48 49 50
786
ASUS44 KJAN 061203
RWRMS

MISSISSIPPI HOURLY WEATHER ROUNDUP
NATIONAL WEATHER SERVICE JACKSON MS
600 AM CST FRI MAR 06 2015

NOTE: "FAIR: INDICATES FEW OR NO CLOUDS BELOW 12,000 FEET WITH NO
SIGNIFICANT WEATHER AND/OR OBSTRUCTIONS TO VISIBILITY.

MSZ001>002-007>008-010>013-018>021-025>028-034>036-061300-
NORTHWEST MISSISSIPPI

CITY           SKY/WX    TMP DP  RH WIND       PRES   REMARKS
CLARKSDALE     FAIR      21  14  73 CALM      30.63R
CLEVELAND      FAIR      22  17  80 NE5       30.61R WCI  16
GREENWOOD      CLEAR     20  13  74 N8        30.59R WCI  10
6HR MIN TEMP:  20; 6HR MAX TEMP:  25;

GREENVILLE     CLEAR     24  16  71 MISG      30.59S
6HR MIN TEMP:  23; 6HR MAX TEMP:  27;

OLIVE BRANCH   CLEAR     12  14 100 MISG      30.59R
OXFORD         FAIR      14  10  85 CALM      30.59R
TUNICA         SUNNY     21  14  73 CALM      30.63R
$$

MSZ003>006-009-014>017-022>024-029>033-037>039-061300-
NORTHEAST MISSISSIPPI

CITY           SKY/WX    TMP DP  RH WIND       PRES   REMARKS
COLUMBUS AFB   CLEAR     19  12  74 N8        30.55R WCI   9
6HR MIN TEMP:  19; 6HR MAX TEMP:  24;

CORINTH        FAIR      18   9  68 N5        30.57S WCI  11
GOLDN TRIANGLE CLEAR     21  12  68 N9        30.52S WCI  11
STARKVILLE     FAIR      21  18  86 CALM      30.55S
TUPELO         CLEAR     18   9  68 NE9       30.57R WCI   7
6HR MIN TEMP:  18; 6HR MAX TEMP:  23;

$$

MSZ040-058-061300-
CENTRAL MISSISSIPPI

CITY           SKY/WX    TMP DP  RH WIND       PRES   REMARKS
JACKSON INTL   PTCLDY    23  17  78 N8        30.53R WCI  14
6HR MIN TEMP:  23; 6HR MAX TEMP:  26;

JACKSON HAWKNS PTCLDY    23  14  68 N8        30.54R WCI  14
6HR MIN TEMP:  22; 6HR MAX TEMP:  26;

MERIDIAN KEY   PTCLDY    21  16  81 N12       30.50R WCI   9
6HR MIN TEMP:  21; 6HR MAX TEMP:  26;

MERIDIAN NAS   PTCLDY    20  16  84 N7        30.50S WCI  11
6HR MIN TEMP:  20; 6HR MAX TEMP:  25;

VICKSBURG      CLEAR     24  15  68 N9        30.58R WCI  14
6HR MIN TEMP:  24; 6HR MAX TEMP:  28;

$$

MSZ059>079-061300-
SOUTH MISSISSIPPI

CITY           SKY/WX    TMP DP  RH WIND       PRES   REMARKS
BROOKHAVEN       N/A     23  21  93 CALM      30.52R
HATTIESBURG    PTCLDY    26  17  68 N10       30.49R WCI  16
6HR MIN TEMP:  26; 6HR MAX TEMP:  31;

MCCOMB         PTCLDY    24  15  68 N12       30.49R WCI  13
6HR MIN TEMP:  24; 6HR MAX TEMP:  27;

NATCHEZ        PTCLDY    25  10  54 N7        30.54R WCI  17
6HR MIN TEMP:  25; 6HR MAX TEMP:  28;

PINE BELT      PTCLDY    25  16  68 N12       30.47S WCI  14
6HR MIN TEMP:  25; 6HR MAX TEMP:  28;

$$

MSZ080>082-061300-
COASTAL MISSISSIPPI

CITY           SKY/WX    TMP DP  RH WIND       PRES   REMARKS
BILOXI         PTCLDY    29  19  66 N14G21    30.42R WCI  18
6HR MIN TEMP:  29; 6HR MAX TEMP:  33;

PASCAGOULA     PTCLDY    28  18  66 N16G25    30.41R WCI  16
6HR MIN TEMP:  28; 6HR MAX TEMP:  32;

GULFPORT       PTCLDY    29  17  61 N12       30.43R WCI  19
6HR MIN TEMP:  29; 6HR MAX TEMP:  33;

$$



USA.gov is the U.S. government's official web portal to all federal, state and local government web resources and services.